Dauntless Aviation
Greetings, Guest! To participate, [sign up for a free account] or [log in]
Airports South America Uruguay

Hospital Policial

Montevideo, URUGUAY

Airport Info
Edit

Location

Latitude / Longitude: 34°52'4"S / 56°9'6"W
  34°52.068'S / 56°9.114'W
  -34.8678 / -56.1519
Satellite photo at:
Airport distance calculator
From:
Weather Reports

METAR

SUMU
8.1nm NE
SUMU 010100Z 17021G31KT 9999 FEW023 11/02 Q1026 TEMPO 16020G35

TAF

SUAA
7.8nm NW
TAF SUAA 312315Z 0100/0124 17015G35KT CAVOK TX12/0118Z TN05/0110Z TEMPO 0100/0106 16020G38KT BECMG 0107/0111 15017KT 9999 FEW015
SUMU
8.1nm NE
TAF SUMU 312315Z 0100/0124 18023G35KT CAVOK TX12/0118Z TN07/0110Z TEMPO 0100/0106 16020G38KT BECMG 0107/0111 15017KT 9999 FEW015
Safelog

 

Dauntless Aviation

© 2007-2015 Dauntless Aviation, all rights reserved
Information provided via PilotNav comes from a variety of official and unofficial data sources. As errors are possible, do not use PilotNav for primary flight planning purposes. Verify any information that you receive via PilotNav with current and canonical charts and other official documents. The material in this database is subject to database copyrights held by Dauntless Aviation and may not be copied without the express permission of Dauntless Aviation - licenses for use of part of all of this data are available for purchase; enquire via the Dauntless Aviation helpdesk. A number of mechanisms and markers exist in the database to protect against and identify infringement / copyright. Automated queries against this website are stictly prohibited, and all activity is logged and analyzed.